Buffalo, MN

3:56 PM CDT on April 23, 2017 (GMT -0500)
Buffalo

Weather History for KCFE - November, 2012

Change the Weather History Date:

Wednesday, November 7, 2012

  Actual Average (KMIC) Record (KMIC)
Temperature  
Mean Temperature 41 °F -  
Max Temperature 46 °F 44 °F 63 °F (2002)
Min Temperature 36 °F 28 °F -1 °F (1991)
Degree Days  
Heating Degree Days 24    
Moisture  
Dew Point 34 °F    
Average Humidity 77    
Maximum Humidity 86    
Minimum Humidity 59    
Precipitation  
Precipitation 0.00 in - - ()
Sea Level Pressure  
Sea Level Pressure 30.06 in    
Wind  
Wind Speed 4 mph (SSW)    
Max Wind Speed 7 mph    
Max Gust Speed -    
Visibility 10 miles    
Events      
Averages and records for this station are not official NWS values.
T = Trace of Precipitation, MM = Missing Value Source: NWS Daily Summary

Daily Weather History Graph

Daily Weather History Graph

Search for Another Location

Airport or City:

Trip Planner

Search our weather history database for the weather conditions in past years. The results will help you decide how hot, cold, wet, or windy it might be!

Date:

Astronomy

Nov. 07, 2012 Rise Set
Actual Time 7:03 AM CST 4:54 PM CST
Civil Twilight 6:31 AM CST 5:25 PM CST
Nautical Twilight 5:56 AM CST 6:00 PM CST
Astronomical Twilight 5:22 AM CST 6:35 PM CST
Moon No Moon Rise 1:20 PM CST (11/7)
Length of Visible Light 10h 53m
Length of Day
9h 51m
Last Quarter, 43% of the Moon is Illuminated
Nov 7
Last Quarter
Nov 13
New
Nov 20
First Quarter
Nov 28
Full
Dec 6
Last Quarter

Hourly Weather History & Observations

Time (CST) Temp. Windchill Dew Point Humidity Pressure Visibility Wind Dir Wind Speed Gust Speed Precip Events Conditions
12:13 AM 38.3 °F 33.2 °F 33.3 °F 82% 30.00 in 10.0 mi NW 6.9 mph - N/A   Overcast
12:33 AM 38.3 °F 33.9 °F 33.6 °F 83% 30.01 in 10.0 mi NW 5.8 mph - N/A   Overcast
12:53 AM 38.3 °F 33.9 °F 33.4 °F 83% 30.01 in 10.0 mi NW 5.8 mph - N/A   Overcast
1:13 AM 38.3 °F 33.9 °F 33.3 °F 82% 30.01 in 10.0 mi NW 5.8 mph - N/A   Overcast
1:33 AM 38.3 °F 33.2 °F 33.3 °F 82% 30.01 in 10.0 mi NW 6.9 mph - N/A   Overcast
1:53 AM 38.3 °F 33.9 °F 33.3 °F 82% 30.02 in 10.0 mi NW 5.8 mph - N/A   Overcast
2:13 AM 38.3 °F 33.2 °F 33.3 °F 82% 30.02 in 10.0 mi NW 6.9 mph - N/A   Overcast
2:53 AM 38.3 °F 33.9 °F 33.4 °F 83% 30.04 in 10.0 mi NW 5.8 mph - N/A   Overcast
3:13 AM 38.1 °F 35.7 °F 33.4 °F 83% 30.04 in 10.0 mi NW 3.5 mph - N/A   Overcast
3:33 AM 38.3 °F 34.8 °F 33.4 °F 83% 30.04 in 10.0 mi WNW 4.6 mph - N/A   Overcast
3:53 AM 37.8 °F 35.3 °F 33.3 °F 84% 30.05 in 10.0 mi WNW 3.5 mph - N/A   Overcast
4:13 AM 37.6 °F 35.1 °F 33.3 °F 84% 30.05 in 10.0 mi NW 3.5 mph - N/A   Overcast
4:33 AM 37.8 °F 34.2 °F 33.1 °F 83% 30.06 in 10.0 mi WNW 4.6 mph - N/A   Overcast
4:53 AM 37.8 °F - 33.4 °F 84% 30.07 in 10.0 mi Calm Calm - N/A   Overcast
5:13 AM 37.8 °F - 33.4 °F 84% 30.07 in 10.0 mi Calm Calm - N/A   Overcast
5:33 AM 37.6 °F - 33.4 °F 85% 30.07 in 10.0 mi Calm Calm - N/A   Overcast
5:53 AM 37.8 °F 35.3 °F 33.8 °F 86% 30.07 in 10.0 mi WNW 3.5 mph - N/A   Overcast
6:13 AM 37.9 °F - 34.0 °F 86% 30.07 in 10.0 mi Calm Calm - N/A   Overcast
6:33 AM 37.9 °F - 34.0 °F 86% 30.08 in 10.0 mi Calm Calm - N/A   Overcast
6:53 AM 38.3 °F - 34.3 °F 86% 30.08 in 10.0 mi Calm Calm - N/A   Overcast
7:13 AM 38.3 °F 35.9 °F 34.3 °F 86% 30.09 in 10.0 mi West 3.5 mph - N/A   Overcast
7:33 AM 38.3 °F - 34.3 °F 86% 30.09 in 10.0 mi Calm Calm - N/A   Overcast
7:53 AM 38.5 °F - 34.7 °F 86% 30.10 in 10.0 mi Calm Calm - N/A   Overcast
8:13 AM 39.2 °F - 34.9 °F 84% 30.10 in 10.0 mi Calm Calm - N/A   Overcast
8:33 AM 39.2 °F - 34.9 °F 84% 30.11 in 10.0 mi Calm Calm - N/A   Overcast
8:54 AM 39.4 °F - 35.4 °F 86% 30.11 in 10.0 mi Calm Calm - N/A   Overcast
9:13 AM 39.6 °F - 35.2 °F 85% 30.11 in 10.0 mi Calm Calm - N/A   Overcast
9:33 AM 39.6 °F - 34.3 °F 82% 30.11 in 10.0 mi Calm Calm - N/A   Mostly Cloudy
9:54 AM 41.5 °F - 34.7 °F 77% 30.11 in 10.0 mi Calm Calm - N/A   Scattered Clouds
10:13 AM 42.6 °F - 35.2 °F 75% 30.12 in 10.0 mi Calm Calm - N/A   Scattered Clouds
10:33 AM 43.3 °F - 35.4 °F 74% 30.11 in 10.0 mi Calm Calm - N/A   Mostly Cloudy
10:54 AM 43.2 °F - 35.6 °F 75% 30.12 in 10.0 mi Calm Calm - N/A   Scattered Clouds
11:13 AM 43.7 °F 42.1 °F 34.7 °F 71% 30.11 in 10.0 mi WSW 3.5 mph - N/A   Scattered Clouds
11:33 AM 44.6 °F 43.1 °F 34.3 °F 67% 30.11 in 10.0 mi SW 3.5 mph - N/A   Scattered Clouds
11:53 AM 45.0 °F 42.6 °F 33.3 °F 64% 30.09 in 10.0 mi SSW 4.6 mph - N/A   Mostly Cloudy
12:13 PM 46.2 °F - 32.9 °F 60% 30.08 in 10.0 mi Calm Calm - N/A   Overcast
12:33 PM 44.6 °F 43.1 °F 32.0 °F 61% 30.08 in 10.0 mi SW 3.5 mph - N/A   Mostly Cloudy
12:53 PM 45.0 °F - 32.2 °F 61% 30.08 in 10.0 mi Calm Calm - N/A   Mostly Cloudy
1:13 PM 45.0 °F 43.5 °F 32.7 °F 62% 30.07 in 10.0 mi SSW 3.5 mph - N/A   Overcast
1:33 PM 45.5 °F - 32.2 °F 60% 30.06 in 10.0 mi Calm Calm - N/A   Overcast
1:53 PM 45.5 °F 44.2 °F 32.0 °F 59% 30.06 in 10.0 mi SSW 3.5 mph - N/A   Overcast
2:13 PM 45.1 °F 42.8 °F 32.4 °F 61% 30.06 in 10.0 mi SSW 4.6 mph - N/A   Overcast
2:33 PM 45.1 °F 43.7 °F 32.9 °F 62% 30.06 in 10.0 mi SW 3.5 mph - N/A   Overcast
2:53 PM 45.3 °F 44.0 °F 32.9 °F 62% 30.06 in 10.0 mi SSW 3.5 mph - N/A   Overcast
3:13 PM 45.5 °F 42.5 °F 33.3 °F 62% 30.06 in 10.0 mi SSW 5.8 mph - N/A   Overcast
3:38 PM 44.8 °F - 33.3 °F 64% 30.06 in 10.0 mi Calm Calm - N/A   Overcast
3:53 PM 44.8 °F 42.4 °F 33.8 °F 65% 30.06 in 10.0 mi South 4.6 mph - N/A   Overcast
4:13 PM 44.6 °F 43.1 °F 34.0 °F 66% 30.06 in 10.0 mi South 3.5 mph - N/A   Overcast
4:33 PM 44.6 °F 42.2 °F 33.8 °F 66% 30.06 in 10.0 mi South 4.6 mph - N/A   Overcast
4:53 PM 44.2 °F - 34.2 °F 68% 30.06 in 10.0 mi Calm Calm - N/A   Overcast
5:13 PM 43.7 °F 42.1 °F 34.7 °F 71% 30.05 in 10.0 mi SSE 3.5 mph - N/A   Overcast
5:33 PM 42.6 °F 40.9 °F 34.3 °F 73% 30.05 in 10.0 mi SSE 3.5 mph - N/A   Overcast
5:53 PM 41.5 °F 39.6 °F 34.0 °F 75% 30.05 in 10.0 mi SE 3.5 mph - N/A   Mostly Cloudy
6:13 PM 41.0 °F 39.0 °F 34.0 °F 76% 30.06 in 10.0 mi ESE 3.5 mph - N/A   Clear
6:33 PM 40.1 °F - 33.4 °F 77% 30.06 in 10.0 mi Calm Calm - N/A   Clear
6:53 PM 39.4 °F 37.2 °F 33.3 °F 79% 30.06 in 10.0 mi SE 3.5 mph - N/A   Clear
7:13 PM 39.2 °F 37.0 °F 33.4 °F 80% 30.06 in 10.0 mi SE 3.5 mph - N/A   Clear
7:33 PM 38.3 °F 34.8 °F 32.9 °F 81% 30.06 in 10.0 mi SE 4.6 mph - N/A   Clear
7:53 PM 38.3 °F 34.8 °F 33.1 °F 81% 30.05 in 10.0 mi SE 4.6 mph - N/A   Clear
8:13 PM 37.4 °F 33.8 °F 32.5 °F 83% 30.05 in 10.0 mi SE 4.6 mph - N/A   Clear
8:33 PM 37.4 °F 34.9 °F 32.9 °F 84% 30.04 in 10.0 mi SE 3.5 mph - N/A   Clear
8:53 PM 37.4 °F 33.8 °F 32.9 °F 84% 30.05 in 10.0 mi SE 4.6 mph - N/A   Clear
9:13 PM 37.4 °F 34.9 °F 32.9 °F 84% 30.05 in 10.0 mi SSE 3.5 mph - N/A   Clear
9:33 PM 37.4 °F 33.8 °F 32.9 °F 84% 30.04 in 10.0 mi SSE 4.6 mph - N/A   Clear
9:53 PM 37.6 °F 34.0 °F 32.9 °F 83% 30.04 in 10.0 mi SE 4.6 mph - N/A   Clear
10:13 PM 37.4 °F 33.8 °F 32.9 °F 84% 30.04 in 10.0 mi SE 4.6 mph - N/A   Clear
10:33 PM 37.4 °F 32.8 °F 32.9 °F 84% 30.04 in 10.0 mi SSE 5.8 mph - N/A   Clear
10:53 PM 37.4 °F 33.8 °F 32.4 °F 82% 30.04 in 10.0 mi SSE 4.6 mph - N/A   Clear
11:13 PM 37.4 °F 33.8 °F 32.4 °F 82% 30.04 in 10.0 mi SE 4.6 mph - N/A   Clear
11:33 PM 36.5 °F 32.7 °F 32.0 °F 84% 30.04 in 10.0 mi SSE 4.6 mph - N/A   Clear
11:53 PM 36.5 °F 32.7 °F 32.0 °F 84% 30.04 in 10.0 mi SSE 4.6 mph - N/A   Clear